Regional Weather Roundup
Issued by NWS

Home | Current Version | Previous Version | Text Only | Print | Product List | Glossary On
Versions: 1 2 3 4 5 6 7 8 9 10 11 12 13 14 15 16 17 18 19 20 21 22 23 24 25 26 27
000
ASUS45 KSLC 262010
RWRUT

UTAH REGIONAL WEATHER ROUNDUP
NATIONAL WEATHER SERVICE SALT LAKE CITY UT
200 PM MDT SUN MAR 26 2017

UTZ001>011-023>025-262100-

NORTHERN UTAH

CITY           SKY/WX    TMP DP  RH WIND       PRES   REMARKS
BRIGHAM CITY     N/A     50  33  50 SW5       30.04F
HILL AFB       PTSUNNY   50  29  44 VRB7      30.02F
LOGAN          PTSUNNY   51  32  48 VRB7      30.02F
OGDEN          PTSUNNY   50  30  46 W9        30.02F
SALT LAKE CITY PTSUNNY   54  26  34 CALM      30.02F
WENDOVER       CLOUDY    51  35  54 E7        30.01F
HEBER CITY     MOSUNNY   48  25  40 CALM      30.01S

$$

UTZ011>015-024>027-262100-

CENTRAL/NORTHEAST UTAH

CITY           SKY/WX    TMP DP  RH WIND       PRES   REMARKS
PROVO AIRPORT  MOSUNNY   49  33  54 W7        30.05F
MOAB/CANYONLAN SUNNY     58  28  32 SW7       29.96F
DELTA          PTSUNNY   50  30  46 NE5       30.05F
PRICE          SUNNY     51  19  28 VRB5      29.99S
ROOSEVELT      PTSUNNY   52  28  40 CALM      30.02F
VERNAL         SUNNY     51  29  42 SW5       29.99F

$$

UTZ013>016-019>022-027-262100-

SOUTHERN UTAH

CITY           SKY/WX    TMP DP  RH WIND       PRES   REMARKS
BRYCE CANYON   SUNNY     47  22  37 SW9       30.06S
CEDAR CITY     MOSUNNY   50  28  42 CALM      30.04F
MILFORD        PTSUNNY   52  27  38 VRB3      30.05F
ST GEORGE      PTCLDY    62  31  31 N3        30.01F
HANKSVILLE     SUNNY     57  23  26 CALM      30.00F
BLANDING       CLOUDY    53  31  43 SW7       30.06S

$$

REGIONAL REPORTS     COLORADO/ARIZONA

CITY           SKY/WX    TMP DP  RH WIND       PRES   REMARKS
CRAIG, CO      PTSUNNY   48  25  40 VRB5      30.00F
GRAND JUNCTION SUNNY     58  29  33 CALM      29.95F
RIFLE, CO      CLOUDY    55  26  32 VRB7      29.96F
MONTROSE, CO   CLOUDY    51  39  63 S14       30.00S
CORTEZ, CO     CLOUDY    54  35  48 NW12      29.99F
COLORADO CITY    N/A     61  30  31 W8G16     30.06F
PAGE, AZ       SUNNY     59  37  44 NE5       29.99F
GRAND CANYON   SUNNY     52  18  26 NW12      30.07S
KINGMAN, AZ    SUNNY     65  14  14 S3        30.03F
FLAGSTAFF, AZ  SUNNY     53   9  17 W12       30.05F

$$

REGIONAL REPORTS    NEVADA/IDAHO/WYOMING

CITY           SKY/WX    TMP DP  RH WIND       PRES   REMARKS
LAS VEGAS, NV  MOSUNNY   68  31  25 VRB6      29.98F
ELY, NY        CLOUDY    48  26  42 S8        30.01F
ELKO, NV       CLOUDY    54  27  35 S16       29.96F
POCATELLO, ID  CLOUDY    51  31  46 VRB6      29.98F
BURLEY, ID     CLOUDY    56  25  30 S16G23    29.93F
FORT BRIDGER,    N/A     44  20  38 NW10      30.04F
EVANSTON, WY   PTSUNNY   42  22  44 W10       30.02F
ROCK SPRINGS,  SUNNY     43  21  41 VRB3      30.00F
KEMMERER, WY     N/A     37  21  52 NW10      30.02S WCI  30

$$




USA.gov is the U.S. government's official web portal to all federal, state and local government web resources and services.